Location: Devils Tower National Monument
(44.5904°N, 104.7201°W)
Time: 16:34:52
(UTC-07:00)

Envisat - Pass Details

Date: 29 January 2020
Orbit: 764 x 766 km, 98.1° (Epoch: 21 February)

Event Time Altitude Azimuth Distance (km) Brightness Sun altitude
Rises 06:43:15 0° 13° (NNE) 3,240 6.2 -7.1°
Reaches altitude 10° 06:45:34 10° 14° (NNE) 2,309 5.5 -6.8°
Maximum altitude 06:50:41 85° 104° (ESE) 773 3.1 -5.9°
Drops below altitude 10° 06:55:45 10° 193° (SSW) 2,291 5.6 -5.0°
Sets 06:58:02 0° 194° (SSW) 3,213 6.3 -4.7°
